Regional Weather Roundup
Issued by NWS

Home | Current Version | Previous Version | Text Only | Print | Product List | Glossary On
Versions: 1 2 3 4 5 6 7 8 9 10 11 12 13 14 15 16 17 18 19 20 21 22 23 24 25 26 27 28 29 30 31 32 33 34 35 36 37 38 39 40 41 42 43 44 45 46 47 48 49 50
000
ASUS45 KABQ 280910
RWRNM
NEW MEXICO REGIONAL WEATHER ROUNDUP
NATIONAL WEATHER SERVICE ALBUQUERQUE NM
300 AM MDT TUE JUL 28 2015

NOTE: "FAIR" MEANS FEW OR NO CLOUDS BELOW 12,000 FEET AGL WITH NO
       SIGNIFICANT WEATHER OR OBSTRUCTIONS TO VISION.

      THIS PRODUCT IS RELEASED AS TWO VERSIONS.  ONE VERSION NEAR
      THE TOP OF THE HOUR CONTAINING PRELIMINARY DATA FROM ALBUQUERQUE
      AND OTHER STATIONS.  A FINAL VERSION WITH ADDITIONAL DATA IS
      ISSUED ABOUT 10 MINUTES AFTER THE HOUR.

NMZ501-503-504-510>518-281000-
NORTHWEST PLATEAU/NORTHCENTRAL MOUNTAINS

CITY           SKY/WX    TMP DP  RH WIND       PRES   REMARKS
FARMINGTON     CLEAR     58  29  33 NE6       30.08R
LOS ALAMOS     MOCLDY    70  46  41 SW7       30.23S
SANTA FE       CLOUDY    71  50  47 SE7       30.15F
TAOS           CLOUDY    57  43  58 CALM      30.22S
ANGEL FIRE     FAIR      45  42  91 CALM      30.33S

$$
NMZ402-403-502-505>509-281000-
WESTCENTRAL MOUNTAINS/SOUTHWEST MOUNTAINS

CITY           SKY/WX    TMP DP  RH WIND       PRES   REMARKS
GALLUP         PTCLDY    59  37  44 CALM      30.20S
GRANTS         PTCLDY    61  51  67 CALM      30.21S
SILVER CITY      N/A     72  46  40 N13       30.12S

$$
NMZ407-409-411-412-281000-
SOUTHERN DESERTS

CITY           SKY/WX    TMP DP  RH WIND       PRES   REMARKS
LORDSBURG      FAIR      73  57  56 NE5       30.03S
DEMING         MOCLDY    78  57  48 SW6       30.04F
LAS CRUCES     MOCLDY    76  60  58 S10       30.06R
HOLLOMAN AFB   MOCLDY    81  53  37 S9        29.99R
ALAMOGORDO     MOCLDY    77  52  41 S9        30.01S
T OR C         PTCLDY    75  53  46 NW6       30.05R

$$
NMZ519>523-281000-
CENTRAL VALLEYS/CENTRAL HIGHLANDS

CITY           SKY/WX    TMP DP  RH WIND       PRES   REMARKS
ALBUQUERQUE    CLOUDY    78  50  37 S9        30.08S
DOUBLE EAGLE   CLOUDY    71  53  52 SE6       30.12S
MORIARTY ARPT    N/A     67  52  58 SE6       30.17S
CLINES CORNERS CLOUDY    66  51  58 S10       30.21F
BELEN          PTSUNNY   74  53  47 CALM      30.07S
SOCORRO        FAIR      73  50  44 NW6       30.06R

$$
NMZ524>526-539-540-281000-
SOUTHCENTRAL MOUNTAINS

CITY           SKY/WX    TMP DP  RH WIND       PRES   REMARKS
RUIDOSO          N/A    N/A N/A N/A MISG        N/A

$$
NMZ527>531-281000-
NORTHEAST HIGHLANDS/NORTHEAST PLAINS

CITY           SKY/WX    TMP DP  RH WIND       PRES   REMARKS
LAS VEGAS      MOCLDY    61  51  70 S13       30.20F
RATON          PTCLDY    60  53  77 CALM      30.13S
CLAYTON        PTCLDY    69  57  65 SW10      30.03R

$$
NMZ532>537-281000-
EASTCENTRAL PLAINS

CITY           SKY/WX    TMP DP  RH WIND       PRES   REMARKS
TUCUMCARI      CLOUDY    82  51  34 W12       29.96R
CANNON AFB     MOCLDY    74  58  57 S9        30.02F
CLOVIS AIRPORT PTCLDY    66  59  77 SW8       30.03F

$$
NMZ028-029-538-281000-
SOUTHEAST PLAINS

CITY           SKY/WX    TMP DP  RH WIND       PRES   REMARKS
ROSWELL        PTCLDY    79  57  46 SE8       29.97F
ARTESIA        PTCLDY    77  61  57 SW3       29.97S
CARLSBAD       PTCLDY    78  59  51 S9        29.94S
HOBBS          CLEAR     77  57  50 S12       30.01S


$$


USA.gov is the U.S. government's official web portal to all federal, state and local government web resources and services.